Location: ?ern� Novina
(50.6762°N, 14.8696°E)
Time: 17:53:02
(UTC+00:00)

Okean 1-7 - Pass Details

Date: 03 March 2021
Orbit: 589 x 619 km, 82.5° (Epoch: 13 April)

Event Time Altitude Azimuth Distance (km) Brightness Sun altitude
Rises 17:56:30 0° 353° (N) 2,902 6.7 -12.0°
Reaches altitude 10° 17:58:48 10° 359° (N) 1,988 5.7 -12.4°
Maximum altitude 18:03:06 51° 76° (ENE) 777 3.2 -13.1°
Drops below altitude 10° 18:07:19 10° 152° (SSE) 1,955 5.3 -13.7°
Enters shadow 18:08:54 - 156° (SSE) 2,585 5.9 -14.0°
